Time,TemperatureF,DewpointF,PressureIn,WindDirection,WindDirectionDegrees,WindSpeedMPH,WindSpeedGustMPH,Humidity,HourlyPrecipIn,Conditions,Clouds,dailyrainin,SoftwareType,DateUTC
2013-10-06 00:00:00,76.6,73.8,30.04,SE,137,4.0,6.0,91,0.00,,,0.00,WUHU216DAVISVP2,2013-10-06 04:00:00,
2013-10-06 00:01:00,76.6,73.8,30.04,SE,141,5.0,6.0,91,0.00,,,0.00,WUHU216DAVISVP2,2013-10-06 04:01:00,
2013-10-06 00:02:00,76.6,73.8,30.04,SE,143,5.0,6.0,91,0.00,,,0.00,WUHU216DAVISVP2,2013-10-06 04:02:00,
2013-10-06 00:07:00,76.6,73.8,30.04,SE,137,3.0,6.0,91,0.00,,,0.00,WUHU216DAVISVP2,2013-10-06 04:07:00,
2013-10-06 00:12:00,76.6,73.8,30.04,SE,132,4.0,5.0,91,0.00,,,0.00,WUHU216DAVISVP2,2013-10-06 04:12:00,
2013-10-06 00:17:00,76.5,73.7,30.04,SE,144,4.0,5.0,91,0.00,,,0.00,WUHU216DAVISVP2,2013-10-06 04:17:00,
2013-10-06 00:22:00,76.5,73.7,30.04,ESE,122,4.0,5.0,91,0.00,,,0.00,WUHU216DAVISVP2,2013-10-06 04:22:00,
2013-10-06 00:27:00,76.5,73.7,30.04,SE,128,3.0,5.0,91,0.00,,,0.00,WUHU216DAVISVP2,2013-10-06 04:27:00,
2013-10-06 00:30:00,76.5,73.7,30.04,SE,135,4.0,5.0,91,0.00,,,0.00,WUHU216DAVISVP2,2013-10-06 04:30:00,
2013-10-06 00:32:00,76.5,73.7,30.04,SE,133,3.0,5.0,91,0.00,,,0.00,WUHU216DAVISVP2,2013-10-06 04:32:00,
2013-10-06 00:37:00,76.5,73.7,30.04,ESE,120,3.0,4.0,91,0.00,,,0.00,WUHU216DAVISVP2,2013-10-06 04:37:00,
2013-10-06 00:42:00,76.5,73.7,30.04,SE,130,2.0,4.0,91,0.00,,,0.00,WUHU216DAVISVP2,2013-10-06 04:42:00,
2013-10-06 00:47:00,76.5,73.7,30.04,SE,131,2.0,4.0,91,0.00,,,0.00,WUHU216DAVISVP2,2013-10-06 04:47:00,
2013-10-06 00:52:00,76.5,73.7,30.04,ESE,118,1.0,3.0,91,0.00,,,0.00,WUHU216DAVISVP2,2013-10-06 04:52:00,
2013-10-06 00:57:00,76.5,73.7,30.04,ESE,117,3.0,3.0,91,0.00,,,0.00,WUHU216DAVISVP2,2013-10-06 04:57:00,
2013-10-06 01:00:00,76.5,74.0,30.04,SE,135,2.0,4.0,92,0.00,,,0.00,WUHU216DAVISVP2,2013-10-06 05:00:00,
2013-10-06 01:02:00,76.5,74.0,30.04,ESE,119,2.0,3.0,92,0.00,,,0.00,WUHU216DAVISVP2,2013-10-06 05:02:00,
2013-10-06 01:07:00,76.5,74.0,30.04,SE,127,1.0,3.0,92,0.00,,,0.00,WUHU216DAVISVP2,2013-10-06 05:07:00,
2013-10-06 01:12:00,76.5,74.0,30.04,SE,127,1.0,3.0,92,0.00,,,0.00,WUHU216DAVISVP2,2013-10-06 05:12:00,
2013-10-06 01:17:00,76.4,73.9,30.04,ESE,116,1.0,3.0,92,0.00,,,0.00,WUHU216DAVISVP2,2013-10-06 05:17:00,
2013-10-06 01:22:00,76.2,73.7,30.04,ESE,117,0.0,3.0,92,0.00,,,0.00,WUHU216DAVISVP2,2013-10-06 05:22:00,
2013-10-06 01:27:00,76.1,73.6,30.03,ESE,116,1.0,2.0,92,0.00,,,0.00,WUHU216DAVISVP2,2013-10-06 05:27:00,
2013-10-06 01:30:00,76.1,73.6,30.03,ESE,113,1.0,3.0,92,0.00,,,0.00,WUHU216DAVISVP2,2013-10-06 05:30:00,
2013-10-06 01:32:00,76.1,73.6,30.03,ESE,116,0.0,1.0,92,0.00,,,0.00,WUHU216DAVISVP2,2013-10-06 05:32:00,
2013-10-06 01:37:00,76.0,73.8,30.04,ESE,107,1.0,1.0,93,0.00,,,0.00,WUHU216DAVISVP2,2013-10-06 05:37:00,
2013-10-06 01:42:00,76.0,73.8,30.03,ESE,105,0.0,1.0,93,0.00,,,0.00,WUHU216DAVISVP2,2013-10-06 05:42:00,
2013-10-06 01:47:00,76.0,73.8,30.03,East,98,2.0,2.0,93,0.00,,,0.00,WUHU216DAVISVP2,2013-10-06 05:47:00,
2013-10-06 01:52:00,76.1,73.9,30.03,ESE,102,2.0,2.0,93,0.00,,,0.00,WUHU216DAVISVP2,2013-10-06 05:52:00,
2013-10-06 01:57:00,76.1,73.9,30.03,ESE,102,2.0,2.0,93,0.00,,,0.00,WUHU216DAVISVP2,2013-10-06 05:57:00,
2013-10-06 02:00:00,76.1,73.9,30.03,ESE,113,1.0,2.0,93,0.00,,,0.00,WUHU216DAVISVP2,2013-10-06 06:00:00,
2013-10-06 02:02:00,76.0,73.8,30.03,ESE,108,1.0,2.0,93,0.00,,,0.00,WUHU216DAVISVP2,2013-10-06 06:02:00,
2013-10-06 02:07:00,75.9,73.7,30.03,ESE,105,1.0,2.0,93,0.00,,,0.00,WUHU216DAVISVP2,2013-10-06 06:07:00,
2013-10-06 02:12:00,75.9,73.7,30.03,ESE,105,0.0,2.0,93,0.00,,,0.00,WUHU216DAVISVP2,2013-10-06 06:12:00,
2013-10-06 02:17:00,75.9,73.7,30.03,ESE,105,1.0,2.0,93,0.00,,,0.00,WUHU216DAVISVP2,2013-10-06 06:17:00,
2013-10-06 02:22:00,75.8,73.6,30.02,East,96,2.0,2.0,93,0.00,,,0.00,WUHU216DAVISVP2,2013-10-06 06:22:00,
2013-10-06 02:27:00,75.8,73.6,30.02,East,94,3.0,3.0,93,0.00,,,0.00,WUHU216DAVISVP2,2013-10-06 06:27:00,
2013-10-06 02:30:00,75.9,74.0,30.02,ESE,113,1.0,3.0,94,0.00,,,0.00,WUHU216DAVISVP2,2013-10-06 06:30:00,
2013-10-06 02:32:00,76.0,74.1,30.02,ESE,103,3.0,3.0,94,0.00,,,0.00,WUHU216DAVISVP2,2013-10-06 06:32:00,
2013-10-06 02:37:00,76.1,74.2,30.02,East,96,4.0,4.0,94,0.00,,,0.00,WUHU216DAVISVP2,2013-10-06 06:37:00,
2013-10-06 02:42:00,76.1,73.9,30.02,East,92,3.0,4.0,93,0.00,,,0.00,WUHU216DAVISVP2,2013-10-06 06:42:00,
2013-10-06 02:47:00,76.0,73.8,30.02,East,100,3.0,5.0,93,0.00,,,0.00,WUHU216DAVISVP2,2013-10-06 06:47:00,
2013-10-06 02:52:00,76.0,73.8,30.01,East,101,4.0,5.0,93,0.00,,,0.00,WUHU216DAVISVP2,2013-10-06 06:52:00,
2013-10-06 02:57:00,76.1,73.9,30.01,East,94,3.0,5.0,93,0.00,,,0.00,WUHU216DAVISVP2,2013-10-06 06:57:00,
2013-10-06 03:00:00,76.1,73.9,30.01,East,90,3.0,5.0,93,0.00,,,0.00,WUHU216DAVISVP2,2013-10-06 07:00:00,
2013-10-06 03:02:00,76.1,73.9,30.01,ENE,67,3.0,5.0,93,0.00,,,0.00,WUHU216DAVISVP2,2013-10-06 07:02:00,
2013-10-06 03:07:00,76.1,73.9,30.01,East,87,5.0,5.0,93,0.00,,,0.00,WUHU216DAVISVP2,2013-10-06 07:07:00,
2013-10-06 03:12:00,76.2,73.7,30.01,SE,126,9.0,12.0,92,0.00,,,0.00,WUHU216DAVISVP2,2013-10-06 07:12:00,
2013-10-06 03:17:00,75.3,72.5,30.01,SE,135,6.0,12.0,91,0.01,,,0.01,WUHU216DAVISVP2,2013-10-06 07:17:00,
2013-10-06 03:22:00,74.8,72.0,30.01,SE,131,8.0,12.0,91,0.01,,,0.01,WUHU216DAVISVP2,2013-10-06 07:22:00,
2013-10-06 03:27:00,74.9,71.8,30.00,SSE,148,6.0,12.0,90,0.01,,,0.01,WUHU216DAVISVP2,2013-10-06 07:27:00,
2013-10-06 03:30:00,75.0,71.9,30.00,SE,135,6.0,12.0,90,0.00,,,0.00,WUHU216DAVISVP2,2013-10-06 07:30:00,
2013-10-06 03:32:00,75.1,72.3,30.00,SE,138,5.0,11.0,91,0.01,,,0.01,WUHU216DAVISVP2,2013-10-06 07:32:00,
2013-10-06 03:37:00,75.3,72.2,30.00,SSE,150,5.0,9.0,90,0.01,,,0.01,WUHU216DAVISVP2,2013-10-06 07:37:00,
2013-10-06 03:42:00,75.2,72.1,30.00,SSE,148,5.0,7.0,90,0.01,,,0.01,WUHU216DAVISVP2,2013-10-06 07:42:00,
2013-10-06 03:47:00,75.4,72.3,30.00,SSE,155,3.0,7.0,90,0.01,,,0.01,WUHU216DAVISVP2,2013-10-06 07:47:00,
2013-10-06 03:52:00,75.7,72.9,30.00,SE,140,4.0,7.0,91,0.01,,,0.01,WUHU216DAVISVP2,2013-10-06 07:52:00,
2013-10-06 03:57:00,75.8,73.0,30.00,SE,139,3.0,7.0,91,0.01,,,0.01,WUHU216DAVISVP2,2013-10-06 07:57:00,
2013-10-06 04:00:00,75.8,73.0,30.00,SE,135,5.0,7.0,91,0.01,,,0.01,WUHU216DAVISVP2,2013-10-06 08:00:00,
2013-10-06 04:02:00,75.7,72.9,30.00,East,101,4.0,6.0,91,0.01,,,0.01,WUHU216DAVISVP2,2013-10-06 08:02:00,
2013-10-06 04:07:00,75.7,72.9,30.00,ESE,107,3.0,5.0,91,0.01,,,0.01,WUHU216DAVISVP2,2013-10-06 08:07:00,
2013-10-06 04:12:00,75.7,72.9,30.00,ESE,102,2.0,4.0,91,0.01,,,0.01,WUHU216DAVISVP2,2013-10-06 08:12:00,
2013-10-06 04:17:00,75.6,72.8,30.00,ESE,108,2.0,4.0,91,0.00,,,0.01,WUHU216DAVISVP2,2013-10-06 08:17:00,
2013-10-06 04:22:00,75.5,72.7,30.00,ESE,122,3.0,4.0,91,0.00,,,0.01,WUHU216DAVISVP2,2013-10-06 08:22:00,
2013-10-06 04:27:00,75.5,72.7,29.99,ESE,113,2.0,4.0,91,0.00,,,0.01,WUHU216DAVISVP2,2013-10-06 08:27:00,
2013-10-06 04:30:00,75.6,73.1,29.99,ESE,113,3.0,4.0,92,0.00,,,0.01,WUHU216DAVISVP2,2013-10-06 08:30:00,
2013-10-06 04:32:00,75.6,73.1,29.99,ESE,105,2.0,4.0,92,0.00,,,0.01,WUHU216DAVISVP2,2013-10-06 08:32:00,
2013-10-06 04:37:00,75.6,72.8,29.99,ESE,102,3.0,4.0,91,0.00,,,0.01,WUHU216DAVISVP2,2013-10-06 08:37:00,
2013-10-06 04:42:00,75.5,72.7,29.99,East,101,2.0,3.0,91,0.00,,,0.01,WUHU216DAVISVP2,2013-10-06 08:42:00,
2013-10-06 04:47:00,75.6,72.8,30.00,ESE,108,1.0,3.0,91,0.00,,,0.01,WUHU216DAVISVP2,2013-10-06 08:47:00,
2013-10-06 04:52:00,75.4,72.6,30.00,ESE,114,2.0,3.0,91,0.00,,,0.01,WUHU216DAVISVP2,2013-10-06 08:52:00,
2013-10-06 04:57:00,75.4,72.6,30.00,ESE,120,1.0,3.0,91,0.00,,,0.01,WUHU216DAVISVP2,2013-10-06 08:57:00,
2013-10-06 05:00:00,75.3,72.5,30.00,ESE,113,2.0,3.0,91,0.00,,,0.01,WUHU216DAVISVP2,2013-10-06 09:00:00,
2013-10-06 05:02:00,75.3,72.5,30.00,South,171,0.0,3.0,91,0.00,,,0.01,WUHU216DAVISVP2,2013-10-06 09:02:00,
2013-10-06 05:07:00,75.1,72.3,30.00,South,171,0.0,3.0,91,0.00,,,0.01,WUHU216DAVISVP2,2013-10-06 09:07:00,
2013-10-06 05:09:00,75.0,72.2,30.00,South,171,0.0,3.0,91,0.00,,,0.01,WUHU216DAVISVP2,2013-10-06 09:09:00,
2013-10-06 05:14:00,74.8,72.3,30.00,South,171,0.0,2.0,92,0.00,,,0.01,WUHU216DAVISVP2,2013-10-06 09:14:00,
2013-10-06 05:19:00,74.9,72.4,30.00,South,171,0.0,0.0,92,0.00,,,0.01,WUHU216DAVISVP2,2013-10-06 09:19:00,
2013-10-06 05:24:00,75.1,72.6,30.00,SE,142,0.0,0.0,92,0.00,,,0.01,WUHU216DAVISVP2,2013-10-06 09:24:00,
2013-10-06 05:29:00,75.2,72.7,30.00,ESE,104,0.0,0.0,92,0.00,,,0.01,WUHU216DAVISVP2,2013-10-06 09:29:00,
2013-10-06 05:30:00,75.2,72.7,30.00,North,0,0.0,0.0,92,0.00,,,0.01,WUHU216DAVISVP2,2013-10-06 09:30:00,
2013-10-06 05:34:00,75.3,72.8,30.00,East,96,0.0,0.0,92,0.00,,,0.01,WUHU216DAVISVP2,2013-10-06 09:34:00,
2013-10-06 05:39:00,75.2,72.7,30.00,SE,135,0.0,0.0,92,0.00,,,0.01,WUHU216DAVISVP2,2013-10-06 09:39:00,
2013-10-06 05:44:00,75.2,72.7,30.00,ESE,122,0.0,1.0,92,0.00,,,0.01,WUHU216DAVISVP2,2013-10-06 09:44:00,
2013-10-06 05:49:00,75.4,73.2,30.00,East,94,2.0,2.0,93,0.00,,,0.01,WUHU216DAVISVP2,2013-10-06 09:49:00,
2013-10-06 05:54:00,75.5,73.3,30.00,East,99,2.0,3.0,93,0.00,,,0.01,WUHU216DAVISVP2,2013-10-06 09:54:00,
2013-10-06 05:59:00,75.7,73.5,30.00,East,98,2.0,3.0,93,0.00,,,0.01,WUHU216DAVISVP2,2013-10-06 09:59:00,
2013-10-06 06:00:00,75.6,73.4,30.00,East,90,1.0,3.0,93,0.00,,,0.01,WUHU216DAVISVP2,2013-10-06 10:00:00,
2013-10-06 06:04:00,75.6,73.4,30.00,East,98,2.0,3.0,93,0.00,,,0.01,WUHU216DAVISVP2,2013-10-06 10:04:00,
2013-10-06 06:09:00,75.7,73.5,30.00,East,99,2.0,3.0,93,0.00,,,0.01,WUHU216DAVISVP2,2013-10-06 10:09:00,
2013-10-06 06:14:00,75.7,73.5,30.00,East,93,2.0,3.0,93,0.00,,,0.01,WUHU216DAVISVP2,2013-10-06 10:14:00,
2013-10-06 06:19:00,75.7,73.5,30.00,ENE,78,2.0,3.0,93,0.00,,,0.01,WUHU216DAVISVP2,2013-10-06 10:19:00,
2013-10-06 06:24:00,75.7,73.5,30.00,ENE,74,2.0,3.0,93,0.00,,,0.01,WUHU216DAVISVP2,2013-10-06 10:24:00,
2013-10-06 06:29:00,75.8,73.6,30.00,ENE,73,1.0,3.0,93,0.00,,,0.01,WUHU216DAVISVP2,2013-10-06 10:29:00,
2013-10-06 06:30:00,75.8,73.6,30.00,East,90,2.0,3.0,93,0.00,,,0.01,WUHU216DAVISVP2,2013-10-06 10:30:00,
2013-10-06 06:34:00,75.7,73.5,30.00,East,87,1.0,3.0,93,0.00,,,0.01,WUHU216DAVISVP2,2013-10-06 10:34:00,
2013-10-06 06:39:00,75.6,73.4,30.00,NE,44,2.0,3.0,93,0.00,,,0.01,WUHU216DAVISVP2,2013-10-06 10:39:00,
2013-10-06 06:44:00,75.6,73.4,30.00,NE,38,2.0,3.0,93,0.00,,,0.01,WUHU216DAVISVP2,2013-10-06 10:44:00,
2013-10-06 06:49:00,75.5,73.3,30.00,NE,40,0.0,3.0,93,0.00,,,0.01,WUHU216DAVISVP2,2013-10-06 10:49:00,
2013-10-06 06:54:00,74.6,71.8,30.01,SSE,148,10.0,12.0,91,0.00,,,0.01,WUHU216DAVISVP2,2013-10-06 10:54:00,
2013-10-06 06:59:00,73.5,70.4,30.01,SSW,212,14.0,18.0,90,0.00,,,0.01,WUHU216DAVISVP2,2013-10-06 10:59:00,
2013-10-06 07:00:00,73.3,70.2,30.01,NE,45,4.0,18.0,90,0.00,,,0.01,WUHU216DAVISVP2,2013-10-06 11:00:00,
2013-10-06 07:04:00,72.9,69.8,30.01,SW,219,10.0,18.0,90,0.00,,,0.01,WUHU216DAVISVP2,2013-10-06 11:04:00,
2013-10-06 07:09:00,72.6,69.8,30.01,WSW,250,7.0,18.0,91,0.01,,,0.02,WUHU216DAVISVP2,2013-10-06 11:09:00,
2013-10-06 07:14:00,72.4,69.3,30.01,WSW,248,8.0,18.0,90,0.01,,,0.02,WUHU216DAVISVP2,2013-10-06 11:14:00,
2013-10-06 07:19:00,72.2,69.4,30.01,WSW,237,8.0,12.0,91,0.01,,,0.02,WUHU216DAVISVP2,2013-10-06 11:19:00,
2013-10-06 07:24:00,72.1,69.6,30.01,West,267,5.0,12.0,92,0.03,,,0.04,WUHU216DAVISVP2,2013-10-06 11:24:00,
2013-10-06 07:29:00,72.1,69.6,30.01,West,266,4.0,11.0,92,0.03,,,0.04,WUHU216DAVISVP2,2013-10-06 11:29:00,
2013-10-06 07:30:00,72.1,70.0,30.01,WSW,248,6.0,12.0,93,0.00,,,0.01,WUHU216DAVISVP2,2013-10-06 11:30:00,
2013-10-06 07:34:00,72.2,70.0,30.01,West,264,1.0,10.0,93,0.03,,,0.04,WUHU216DAVISVP2,2013-10-06 11:34:00,
2013-10-06 07:39:00,72.4,70.5,30.02,ENE,66,9.0,9.0,94,0.03,,,0.04,WUHU216DAVISVP2,2013-10-06 11:39:00,
2013-10-06 07:44:00,72.7,70.8,30.02,ESE,110,5.0,9.0,94,0.03,,,0.04,WUHU216DAVISVP2,2013-10-06 11:44:00,
2013-10-06 07:49:00,73.3,71.4,30.02,East,84,4.0,9.0,94,0.03,,,0.04,WUHU216DAVISVP2,2013-10-06 11:49:00,
2013-10-06 07:54:00,73.2,70.4,30.02,ENE,57,3.0,9.0,91,0.03,,,0.04,WUHU216DAVISVP2,2013-10-06 11:54:00,
2013-10-06 07:59:00,73.5,70.7,30.02,ENE,65,5.0,9.0,91,0.03,,,0.04,WUHU216DAVISVP2,2013-10-06 11:59:00,
2013-10-06 08:00:00,73.6,70.8,30.02,ENE,68,4.0,9.0,91,0.03,,,0.04,WUHU216DAVISVP2,2013-10-06 12:00:00,
2013-10-06 08:04:00,73.5,70.4,30.02,ENE,63,3.0,8.0,90,0.03,,,0.04,WUHU216DAVISVP2,2013-10-06 12:04:00,
2013-10-06 08:09:00,73.6,70.5,30.02,ENE,66,4.0,8.0,90,0.02,,,0.04,WUHU216DAVISVP2,2013-10-06 12:09:00,
2013-10-06 08:14:00,73.6,70.5,30.02,NE,44,4.0,6.0,90,0.02,,,0.04,WUHU216DAVISVP2,2013-10-06 12:14:00,
2013-10-06 08:19:00,73.7,70.6,30.02,NNE,27,1.0,6.0,90,0.02,,,0.04,WUHU216DAVISVP2,2013-10-06 12:19:00,
2013-10-06 08:24:00,73.7,70.6,30.02,NE,40,1.0,5.0,90,0.00,,,0.04,WUHU216DAVISVP2,2013-10-06 12:24:00,
2013-10-06 08:29:00,73.8,70.7,30.02,NE,40,1.0,4.0,90,0.00,,,0.04,WUHU216DAVISVP2,2013-10-06 12:29:00,
2013-10-06 08:30:00,73.8,70.7,30.02,NE,45,2.0,5.0,90,0.00,,,0.04,WUHU216DAVISVP2,2013-10-06 12:30:00,
2013-10-06 08:34:00,73.8,70.7,30.02,NNE,31,0.0,3.0,90,0.00,,,0.04,WUHU216DAVISVP2,2013-10-06 12:34:00,
2013-10-06 08:39:00,73.9,70.8,30.02,NNE,32,2.0,3.0,90,0.00,,,0.04,WUHU216DAVISVP2,2013-10-06 12:39:00,
2013-10-06 08:44:00,74.0,70.5,30.02,NE,40,3.0,4.0,89,0.00,,,0.04,WUHU216DAVISVP2,2013-10-06 12:44:00,
2013-10-06 08:49:00,74.2,71.1,30.03,NNE,31,2.0,4.0,90,0.00,,,0.04,WUHU216DAVISVP2,2013-10-06 12:49:00,
2013-10-06 08:54:00,74.6,71.1,30.03,NE,51,2.0,4.0,89,0.00,,,0.04,WUHU216DAVISVP2,2013-10-06 12:54:00,
2013-10-06 08:59:00,74.8,71.3,30.03,NE,41,3.0,5.0,89,0.00,,,0.04,WUHU216DAVISVP2,2013-10-06 12:59:00,
2013-10-06 09:00:00,74.8,71.3,30.03,NE,45,2.0,5.0,89,0.00,,,0.04,WUHU216DAVISVP2,2013-10-06 13:00:00,
2013-10-06 09:04:00,75.0,71.5,30.03,NE,51,3.0,5.0,89,0.00,,,0.04,WUHU216DAVISVP2,2013-10-06 13:04:00,
2013-10-06 09:09:00,75.5,72.4,30.03,NE,44,5.0,6.0,90,0.00,,,0.04,WUHU216DAVISVP2,2013-10-06 13:09:00,
2013-10-06 09:14:00,75.9,72.4,30.03,NE,49,5.0,6.0,89,0.00,,,0.04,WUHU216DAVISVP2,2013-10-06 13:14:00,
2013-10-06 09:19:00,75.8,72.3,30.03,NE,40,5.0,6.0,89,0.00,,,0.04,WUHU216DAVISVP2,2013-10-06 13:19:00,
2013-10-06 09:24:00,75.8,72.3,30.03,NE,51,6.0,7.0,89,0.00,,,0.04,WUHU216DAVISVP2,2013-10-06 13:24:00,
2013-10-06 09:29:00,75.8,72.3,30.03,NE,44,5.0,7.0,89,0.00,,,0.04,WUHU216DAVISVP2,2013-10-06 13:29:00,
2013-10-06 09:30:00,75.9,72.4,30.03,NE,45,5.0,7.0,89,0.00,,,0.04,WUHU216DAVISVP2,2013-10-06 13:30:00,
2013-10-06 09:34:00,75.9,72.4,30.03,NE,37,4.0,7.0,89,0.00,,,0.04,WUHU216DAVISVP2,2013-10-06 13:34:00,
2013-10-06 09:39:00,75.9,72.4,30.03,NE,42,3.0,7.0,89,0.00,,,0.04,WUHU216DAVISVP2,2013-10-06 13:39:00,
2013-10-06 09:44:00,75.9,72.4,30.03,NE,49,2.0,6.0,89,0.00,,,0.04,WUHU216DAVISVP2,2013-10-06 13:44:00,
2013-10-06 09:49:00,76.1,72.6,30.03,NE,44,3.0,5.0,89,0.00,,,0.04,WUHU216DAVISVP2,2013-10-06 13:49:00,
2013-10-06 09:54:00,76.2,73.0,30.03,ENE,65,3.0,5.0,90,0.00,,,0.04,WUHU216DAVISVP2,2013-10-06 13:54:00,
2013-10-06 09:59:00,76.2,72.7,30.03,ENE,65,2.0,4.0,89,0.00,,,0.04,WUHU216DAVISVP2,2013-10-06 13:59:00,
2013-10-06 10:00:00,76.2,72.7,30.03,NE,45,3.0,5.0,89,0.00,,,0.04,WUHU216DAVISVP2,2013-10-06 14:00:00,
2013-10-06 10:04:00,76.4,72.9,30.03,NE,56,1.0,4.0,89,0.00,,,0.04,WUHU216DAVISVP2,2013-10-06 14:04:00,
2013-10-06 10:09:00,76.6,73.1,30.03,ESE,113,2.0,3.0,89,0.00,,,0.04,WUHU216DAVISVP2,2013-10-06 14:09:00,
2013-10-06 10:14:00,76.6,73.1,30.03,East,89,0.0,3.0,89,0.00,,,0.04,WUHU216DAVISVP2,2013-10-06 14:14:00,
2013-10-06 10:19:00,76.8,73.3,30.03,East,95,2.0,3.0,89,0.00,,,0.04,WUHU216DAVISVP2,2013-10-06 14:19:00,
2013-10-06 10:24:00,77.0,73.2,30.03,East,86,2.0,3.0,88,0.00,,,0.04,WUHU216DAVISVP2,2013-10-06 14:24:00,
2013-10-06 10:29:00,77.1,73.3,30.03,East,99,2.0,3.0,88,0.00,,,0.04,WUHU216DAVISVP2,2013-10-06 14:29:00,
2013-10-06 10:30:00,77.1,73.3,30.03,East,90,1.0,3.0,88,0.00,,,0.04,WUHU216DAVISVP2,2013-10-06 14:30:00,
2013-10-06 10:34:00,77.1,73.3,30.03,ESE,119,3.0,3.0,88,0.00,,,0.04,WUHU216DAVISVP2,2013-10-06 14:34:00,
2013-10-06 10:39:00,77.1,73.3,30.03,ESE,108,2.0,3.0,88,0.00,,,0.04,WUHU216DAVISVP2,2013-10-06 14:39:00,
2013-10-06 10:44:00,77.1,73.3,30.03,SE,132,3.0,3.0,88,0.00,,,0.04,WUHU216DAVISVP2,2013-10-06 14:44:00,
2013-10-06 10:49:00,76.8,72.7,30.03,SE,144,2.0,5.0,87,0.00,,,0.04,WUHU216DAVISVP2,2013-10-06 14:49:00,
2013-10-06 10:54:00,76.9,72.8,30.03,East,98,2.0,5.0,87,0.00,,,0.04,WUHU216DAVISVP2,2013-10-06 14:54:00,
2013-10-06 10:59:00,76.9,72.4,30.03,ESE,109,2.0,5.0,86,0.00,,,0.04,WUHU216DAVISVP2,2013-10-06 14:59:00,
2013-10-06 11:00:00,77.0,72.8,30.03,ESE,113,2.0,5.0,87,0.00,,,0.04,WUHU216DAVISVP2,2013-10-06 15:00:00,
2013-10-06 11:04:00,77.2,73.0,30.03,East,98,0.0,5.0,87,0.00,,,0.04,WUHU216DAVISVP2,2013-10-06 15:04:00,
2013-10-06 11:09:00,77.4,72.6,30.03,ESE,111,2.0,4.0,85,0.00,,,0.04,WUHU216DAVISVP2,2013-10-06 15:09:00,
2013-10-06 11:14:00,77.7,72.9,30.03,ESE,110,0.0,3.0,85,0.00,,,0.04,WUHU216DAVISVP2,2013-10-06 15:14:00,
2013-10-06 11:19:00,78.0,72.8,30.03,ESE,105,0.0,3.0,84,0.00,,,0.04,WUHU216DAVISVP2,2013-10-06 15:19:00,
2013-10-06 11:24:00,78.1,72.9,30.03,East,95,1.0,2.0,84,0.00,,,0.04,WUHU216DAVISVP2,2013-10-06 15:24:00,
2013-10-06 11:29:00,77.9,72.4,30.03,East,91,0.0,2.0,83,0.00,,,0.04,WUHU216DAVISVP2,2013-10-06 15:29:00,
2013-10-06 11:30:00,77.9,72.7,30.03,East,90,1.0,3.0,84,0.00,,,0.04,WUHU216DAVISVP2,2013-10-06 15:30:00,
2013-10-06 11:34:00,78.1,72.9,30.03,SE,134,3.0,4.0,84,0.00,,,0.04,WUHU216DAVISVP2,2013-10-06 15:34:00,
2013-10-06 11:39:00,77.9,72.7,30.03,ESE,122,6.0,6.0,84,0.00,,,0.04,WUHU216DAVISVP2,2013-10-06 15:39:00,
2013-10-06 11:44:00,77.8,72.6,30.03,SE,139,6.0,9.0,84,0.00,,,0.04,WUHU216DAVISVP2,2013-10-06 15:44:00,
2013-10-06 11:49:00,77.2,72.3,30.03,ESE,102,2.0,9.0,85,0.00,,,0.04,WUHU216DAVISVP2,2013-10-06 15:49:00,
2013-10-06 11:54:00,77.1,72.6,30.03,ENE,77,5.0,9.0,86,0.00,,,0.04,WUHU216DAVISVP2,2013-10-06 15:54:00,
2013-10-06 11:59:00,76.8,72.7,30.02,ENE,71,4.0,9.0,87,0.00,,,0.04,WUHU216DAVISVP2,2013-10-06 15:59:00,
2013-10-06 12:00:00,76.8,72.6,30.02,SE,135,4.0,9.0,87,0.00,,,0.04,WUHU216DAVISVP2,2013-10-06 16:00:00,
2013-10-06 12:04:00,76.8,73.0,30.02,ESE,103,5.0,7.0,88,0.00,,,0.04,WUHU216DAVISVP2,2013-10-06 16:04:00,
2013-10-06 12:09:00,76.9,73.1,30.02,NE,37,3.0,7.0,88,0.00,,,0.04,WUHU216DAVISVP2,2013-10-06 16:09:00,
2013-10-06 12:14:00,77.2,73.4,30.02,NE,36,4.0,7.0,88,0.00,,,0.04,WUHU216DAVISVP2,2013-10-06 16:14:00,
2013-10-06 12:19:00,77.5,73.7,30.02,ENE,65,3.0,7.0,88,0.00,,,0.04,WUHU216DAVISVP2,2013-10-06 16:19:00,
2013-10-06 12:24:00,78.0,74.2,30.02,East,80,4.0,5.0,88,0.00,,,0.04,WUHU216DAVISVP2,2013-10-06 16:24:00,
2013-10-06 12:29:00,78.7,74.2,30.02,ESE,103,1.0,5.0,86,0.00,,,0.04,WUHU216DAVISVP2,2013-10-06 16:29:00,
2013-10-06 12:30:00,78.7,74.2,30.02,ENE,68,3.0,7.0,86,0.00,,,0.04,WUHU216DAVISVP2,2013-10-06 16:30:00,
2013-10-06 12:34:00,78.8,74.3,30.01,East,80,4.0,5.0,86,0.00,,,0.04,WUHU216DAVISVP2,2013-10-06 16:34:00,
2013-10-06 12:39:00,78.9,74.1,30.01,ENE,67,4.0,6.0,85,0.00,,,0.04,WUHU216DAVISVP2,2013-10-06 16:39:00,
2013-10-06 12:44:00,79.0,73.8,30.01,ENE,67,5.0,7.0,84,0.00,,,0.04,WUHU216DAVISVP2,2013-10-06 16:44:00,
2013-10-06 12:49:00,79.0,73.5,30.01,NE,51,5.0,8.0,83,0.00,,,0.04,WUHU216DAVISVP2,2013-10-06 16:49:00,
2013-10-06 12:54:00,79.0,73.8,30.01,ENE,67,4.0,8.0,84,0.00,,,0.04,WUHU216DAVISVP2,2013-10-06 16:54:00,
2013-10-06 12:59:00,79.1,73.2,30.00,ENE,64,6.0,8.0,82,0.00,,,0.04,WUHU216DAVISVP2,2013-10-06 16:59:00,
2013-10-06 13:00:00,79.1,73.5,30.00,ENE,68,5.0,8.0,83,0.00,,,0.04,WUHU216DAVISVP2,2013-10-06 17:00:00,
2013-10-06 13:04:00,79.1,73.6,30.00,ENE,64,5.0,8.0,83,0.00,,,0.04,WUHU216DAVISVP2,2013-10-06 17:04:00,
2013-10-06 13:09:00,79.2,73.9,30.00,ENE,63,8.0,8.0,84,0.00,,,0.04,WUHU216DAVISVP2,2013-10-06 17:09:00,
2013-10-06 13:14:00,79.1,74.2,30.00,NE,56,8.0,8.0,85,0.00,,,0.04,WUHU216DAVISVP2,2013-10-06 17:14:00,
2013-10-06 13:19:00,79.0,74.2,30.00,NE,45,7.0,8.0,85,0.00,,,0.04,WUHU216DAVISVP2,2013-10-06 17:19:00,
2013-10-06 13:24:00,79.2,74.7,29.99,East,80,4.0,8.0,86,0.00,,,0.04,WUHU216DAVISVP2,2013-10-06 17:24:00,
2013-10-06 13:29:00,79.2,74.3,29.99,ENE,60,5.0,9.0,85,0.00,,,0.04,WUHU216DAVISVP2,2013-10-06 17:29:00,
2013-10-06 13:30:00,79.2,74.6,29.99,ENE,68,6.0,9.0,86,0.00,,,0.04,WUHU216DAVISVP2,2013-10-06 17:30:00,
2013-10-06 13:34:00,79.2,74.3,29.99,NE,45,5.0,9.0,85,0.00,,,0.04,WUHU216DAVISVP2,2013-10-06 17:34:00,
2013-10-06 13:39:00,79.2,74.7,29.99,East,84,6.0,9.0,86,0.00,,,0.04,WUHU216DAVISVP2,2013-10-06 17:39:00,
2013-10-06 13:44:00,78.9,74.4,29.99,SE,124,8.0,9.0,86,0.00,,,0.04,WUHU216DAVISVP2,2013-10-06 17:44:00,
2013-10-06 13:49:00,78.6,74.4,29.99,ENE,77,9.0,11.0,87,0.00,,,0.04,WUHU216DAVISVP2,2013-10-06 17:49:00,
2013-10-06 13:54:00,78.3,74.5,29.99,NE,53,8.0,11.0,88,0.00,,,0.04,WUHU216DAVISVP2,2013-10-06 17:54:00,
2013-10-06 13:59:00,78.2,74.7,29.99,ESE,115,7.0,11.0,89,0.00,,,0.04,WUHU216DAVISVP2,2013-10-06 17:59:00,
2013-10-06 14:00:00,78.2,74.7,29.99,ENE,68,7.0,11.0,89,0.00,,,0.04,WUHU216DAVISVP2,2013-10-06 18:00:00,
2013-10-06 14:04:00,77.9,74.4,29.98,East,95,5.0,12.0,89,0.00,,,0.04,WUHU216DAVISVP2,2013-10-06 18:04:00,
2013-10-06 14:09:00,77.0,72.5,29.98,SE,126,11.0,14.0,86,0.00,,,0.04,WUHU216DAVISVP2,2013-10-06 18:09:00,
2013-10-06 14:14:00,76.3,72.2,29.99,East,101,9.0,14.0,87,0.00,,,0.04,WUHU216DAVISVP2,2013-10-06 18:14:00,
2013-10-06 14:19:00,76.2,72.4,29.99,SE,140,5.0,14.0,88,0.00,,,0.04,WUHU216DAVISVP2,2013-10-06 18:19:00,
2013-10-06 14:24:00,76.6,72.8,29.99,SE,138,6.0,14.0,88,0.00,,,0.04,WUHU216DAVISVP2,2013-10-06 18:24:00,
2013-10-06 14:29:00,76.8,73.0,29.99,SE,144,11.0,12.0,88,0.00,,,0.04,WUHU216DAVISVP2,2013-10-06 18:29:00,
2013-10-06 14:30:00,76.8,73.0,29.99,SE,135,8.0,14.0,88,0.00,,,0.04,WUHU216DAVISVP2,2013-10-06 18:30:00,
2013-10-06 14:34:00,76.4,72.6,29.99,SE,131,8.0,12.0,88,0.00,,,0.04,WUHU216DAVISVP2,2013-10-06 18:34:00,
2013-10-06 14:39:00,76.3,72.2,29.98,SE,142,11.0,12.0,87,0.00,,,0.04,WUHU216DAVISVP2,2013-10-06 18:39:00,
2013-10-06 14:44:00,76.8,73.3,29.98,SE,146,14.0,18.0,89,0.00,,,0.04,WUHU216DAVISVP2,2013-10-06 18:44:00,
2013-10-06 14:49:00,76.6,72.8,29.98,SE,143,12.0,18.0,88,0.00,,,0.04,WUHU216DAVISVP2,2013-10-06 18:49:00,
2013-10-06 14:54:00,76.2,72.1,29.98,SE,139,13.0,18.0,87,0.00,,,0.04,WUHU216DAVISVP2,2013-10-06 18:54:00,
2013-10-06 14:59:00,76.2,72.4,29.97,SE,143,14.0,18.0,88,0.00,,,0.04,WUHU216DAVISVP2,2013-10-06 18:59:00,
2013-10-06 15:00:00,76.1,72.3,29.97,SE,135,12.0,18.0,88,0.00,,,0.04,WUHU216DAVISVP2,2013-10-06 19:00:00,
2013-10-06 15:04:00,76.0,72.2,29.97,SE,141,11.0,18.0,88,0.00,,,0.04,WUHU216DAVISVP2,2013-10-06 19:04:00,
2013-10-06 15:09:00,76.1,72.0,29.97,SE,127,8.0,16.0,87,0.00,,,0.04,WUHU216DAVISVP2,2013-10-06 19:09:00,
2013-10-06 15:14:00,76.1,72.3,29.97,SE,139,7.0,15.0,88,0.00,,,0.04,WUHU216DAVISVP2,2013-10-06 19:14:00,
2013-10-06 15:19:00,76.2,72.4,29.97,SE,129,6.0,14.0,88,0.00,,,0.04,WUHU216DAVISVP2,2013-10-06 19:19:00,
2013-10-06 15:24:00,76.3,72.2,29.97,SE,124,5.0,11.0,87,0.00,,,0.04,WUHU216DAVISVP2,2013-10-06 19:24:00,
2013-10-06 15:29:00,76.1,72.0,29.97,ESE,111,7.0,9.0,87,0.00,,,0.04,WUHU216DAVISVP2,2013-10-06 19:29:00,
2013-10-06 15:30:00,76.1,72.3,29.97,SE,135,8.0,14.0,88,0.00,,,0.04,WUHU216DAVISVP2,2013-10-06 19:30:00,
2013-10-06 15:34:00,76.3,72.5,29.97,SE,136,8.0,9.0,88,0.00,,,0.04,WUHU216DAVISVP2,2013-10-06 19:34:00,
2013-10-06 15:39:00,76.2,72.0,29.97,ESE,119,10.0,12.0,87,0.00,,,0.04,WUHU216DAVISVP2,2013-10-06 19:39:00,
2013-10-06 15:44:00,76.0,72.2,29.98,SSE,147,10.0,13.0,88,0.00,,,0.04,WUHU216DAVISVP2,2013-10-06 19:44:00,
2013-10-06 15:49:00,76.2,72.1,29.98,SW,217,6.0,16.0,87,0.00,,,0.04,WUHU216DAVISVP2,2013-10-06 19:49:00,
2013-10-06 15:54:00,76.3,72.2,29.98,West,272,6.0,16.0,87,0.00,,,0.04,WUHU216DAVISVP2,2013-10-06 19:54:00,
2013-10-06 15:59:00,76.3,72.2,29.97,WSW,248,13.0,16.0,87,0.00,,,0.04,WUHU216DAVISVP2,2013-10-06 19:59:00,
2013-10-06 16:00:00,76.3,72.1,29.97,SE,135,9.0,16.0,87,0.00,,,0.04,WUHU216DAVISVP2,2013-10-06 20:00:00,
2013-10-06 16:04:00,76.3,72.2,29.97,West,260,9.0,16.0,87,0.00,,,0.04,WUHU216DAVISVP2,2013-10-06 20:04:00,
2013-10-06 16:09:00,76.2,72.4,29.97,SW,221,8.0,16.0,88,0.00,,,0.04,WUHU216DAVISVP2,2013-10-06 20:09:00,
2013-10-06 16:14:00,76.2,72.1,29.97,WSW,253,6.0,16.0,87,0.00,,,0.04,WUHU216DAVISVP2,2013-10-06 20:14:00,
2013-10-06 16:19:00,76.2,72.0,29.97,South,177,8.0,15.0,87,0.00,,,0.04,WUHU216DAVISVP2,2013-10-06 20:19:00,
2013-10-06 16:24:00,76.1,71.6,29.97,SSW,197,9.0,15.0,86,0.00,,,0.04,WUHU216DAVISVP2,2013-10-06 20:24:00,
2013-10-06 16:29:00,76.3,72.5,29.97,SE,130,11.0,15.0,88,0.00,,,0.04,WUHU216DAVISVP2,2013-10-06 20:29:00,
2013-10-06 16:30:00,76.3,72.5,29.97,SW,225,8.0,15.0,88,0.00,,,0.04,WUHU216DAVISVP2,2013-10-06 20:30:00,
2013-10-06 16:34:00,76.3,72.5,29.97,SE,145,12.0,15.0,88,0.00,,,0.04,WUHU216DAVISVP2,2013-10-06 20:34:00,
2013-10-06 16:39:00,76.1,72.3,29.97,SE,143,13.0,15.0,88,0.00,,,0.04,WUHU216DAVISVP2,2013-10-06 20:39:00,
2013-10-06 16:44:00,75.9,72.4,29.97,SE,146,14.0,15.0,89,0.00,,,0.04,WUHU216DAVISVP2,2013-10-06 20:44:00,
2013-10-06 16:49:00,75.7,72.5,29.96,SE,144,11.0,15.0,90,0.00,,,0.04,WUHU216DAVISVP2,2013-10-06 20:49:00,
2013-10-06 16:54:00,75.4,72.3,29.96,SE,143,11.0,15.0,90,0.00,,,0.04,WUHU216DAVISVP2,2013-10-06 20:54:00,
2013-10-06 16:59:00,74.8,71.3,29.95,SE,130,4.0,14.0,89,0.00,,,0.04,WUHU216DAVISVP2,2013-10-06 20:59:00,
2013-10-06 17:00:00,74.8,71.7,29.95,SE,135,10.0,15.0,90,0.00,,,0.04,WUHU216DAVISVP2,2013-10-06 21:00:00,
2013-10-06 17:04:00,74.9,72.1,29.95,East,96,5.0,13.0,91,0.00,,,0.04,WUHU216DAVISVP2,2013-10-06 21:04:00,
2013-10-06 17:09:00,74.8,72.0,29.96,ESE,110,3.0,13.0,91,0.00,,,0.04,WUHU216DAVISVP2,2013-10-06 21:09:00,
2013-10-06 17:14:00,74.7,71.6,29.96,SE,139,6.0,10.0,90,0.00,,,0.04,WUHU216DAVISVP2,2013-10-06 21:14:00,
2013-10-06 17:19:00,74.8,72.0,29.96,SE,146,5.0,6.0,91,0.00,,,0.04,WUHU216DAVISVP2,2013-10-06 21:19:00,
2013-10-06 17:24:00,74.9,72.1,29.96,SE,134,4.0,6.0,91,0.00,,,0.04,WUHU216DAVISVP2,2013-10-06 21:24:00,
2013-10-06 17:29:00,74.9,72.1,29.96,SE,136,6.0,7.0,91,0.00,,,0.04,WUHU216DAVISVP2,2013-10-06 21:29:00,
2013-10-06 17:30:00,74.9,72.1,29.96,SE,135,5.0,7.0,91,0.00,,,0.04,WUHU216DAVISVP2,2013-10-06 21:30:00,
2013-10-06 17:34:00,74.7,71.6,29.96,SE,127,6.0,7.0,90,0.00,,,0.04,WUHU216DAVISVP2,2013-10-06 21:34:00,
2013-10-06 17:39:00,74.7,71.2,29.96,ESE,115,5.0,8.0,89,0.00,,,0.04,WUHU216DAVISVP2,2013-10-06 21:39:00,
2013-10-06 17:44:00,74.9,71.1,29.96,SE,136,8.0,9.0,88,0.00,,,0.04,WUHU216DAVISVP2,2013-10-06 21:44:00,
2013-10-06 17:49:00,75.3,71.8,29.96,SE,126,9.0,9.0,89,0.00,,,0.04,WUHU216DAVISVP2,2013-10-06 21:49:00,
2013-10-06 17:54:00,75.8,72.3,29.96,SSE,148,10.0,12.0,89,0.00,,,0.04,WUHU216DAVISVP2,2013-10-06 21:54:00,
2013-10-06 17:59:00,76.0,72.5,29.96,SE,141,12.0,14.0,89,0.00,,,0.04,WUHU216DAVISVP2,2013-10-06 21:59:00,
2013-10-06 18:00:00,76.0,72.5,29.96,SE,135,8.0,14.0,89,0.00,,,0.04,WUHU216DAVISVP2,2013-10-06 22:00:00,
2013-10-06 18:04:00,76.0,72.5,29.95,SE,144,10.0,14.0,89,0.00,,,0.04,WUHU216DAVISVP2,2013-10-06 22:04:00,
2013-10-06 18:09:00,75.8,72.3,29.95,ESE,116,10.0,14.0,89,0.00,,,0.04,WUHU216DAVISVP2,2013-10-06 22:09:00,
2013-10-06 18:14:00,75.6,72.4,29.95,ESE,105,8.0,14.0,90,0.00,,,0.04,WUHU216DAVISVP2,2013-10-06 22:14:00,
2013-10-06 18:19:00,75.5,72.4,29.94,East,95,8.0,12.0,90,0.00,,,0.04,WUHU216DAVISVP2,2013-10-06 22:19:00,
2013-10-06 18:24:00,75.3,72.5,29.94,East,86,7.0,11.0,91,0.00,,,0.04,WUHU216DAVISVP2,2013-10-06 22:24:00,
2013-10-06 18:29:00,75.0,72.2,29.95,SE,139,6.0,11.0,91,0.00,,,0.04,WUHU216DAVISVP2,2013-10-06 22:29:00,
2013-10-06 18:30:00,75.0,72.5,29.95,SE,135,8.0,12.0,92,0.00,,,0.04,WUHU216DAVISVP2,2013-10-06 22:30:00,
2013-10-06 18:34:00,74.9,72.4,29.95,SE,137,7.0,11.0,92,0.00,,,0.04,WUHU216DAVISVP2,2013-10-06 22:34:00,
2013-10-06 18:39:00,75.1,72.6,29.95,SE,144,6.0,11.0,92,0.00,,,0.04,WUHU216DAVISVP2,2013-10-06 22:39:00,
2013-10-06 18:44:00,75.2,72.7,29.95,SE,136,7.0,10.0,92,0.00,,,0.04,WUHU216DAVISVP2,2013-10-06 22:44:00,
2013-10-06 18:49:00,75.2,72.7,29.95,SE,133,6.0,10.0,92,0.00,,,0.04,WUHU216DAVISVP2,2013-10-06 22:49:00,
2013-10-06 18:54:00,75.1,72.6,29.95,South,169,3.0,9.0,92,0.00,,,0.04,WUHU216DAVISVP2,2013-10-06 22:54:00,
2013-10-06 18:59:00,75.1,72.3,29.95,SW,218,3.0,9.0,91,0.00,,,0.04,WUHU216DAVISVP2,2013-10-06 22:59:00,
2013-10-06 19:00:00,75.1,72.3,29.95,SE,135,6.0,10.0,91,0.00,,,0.04,WUHU216DAVISVP2,2013-10-06 23:00:00,
2013-10-06 19:04:00,74.9,72.1,29.95,ESE,113,3.0,8.0,91,0.00,,,0.04,WUHU216DAVISVP2,2013-10-06 23:04:00,
2013-10-06 19:09:00,75.0,72.2,29.95,SE,142,6.0,7.0,91,0.00,,,0.04,WUHU216DAVISVP2,2013-10-06 23:09:00,
2013-10-06 19:14:00,75.2,72.4,29.95,SE,137,6.0,7.0,91,0.00,,,0.04,WUHU216DAVISVP2,2013-10-06 23:14:00,
2013-10-06 19:19:00,75.4,72.6,29.95,SE,132,4.0,7.0,91,0.00,,,0.04,WUHU216DAVISVP2,2013-10-06 23:19:00,
2013-10-06 19:24:00,75.7,72.9,29.95,SE,136,11.0,11.0,91,0.00,,,0.04,WUHU216DAVISVP2,2013-10-06 23:24:00,
2013-10-06 19:29:00,75.8,73.0,29.95,SE,134,6.0,11.0,91,0.00,,,0.04,WUHU216DAVISVP2,2013-10-06 23:29:00,
2013-10-06 19:30:00,75.8,73.0,29.95,SE,135,6.0,11.0,91,0.00,,,0.04,WUHU216DAVISVP2,2013-10-06 23:30:00,
2013-10-06 19:34:00,75.6,72.8,29.95,SE,139,5.0,11.0,91,0.00,,,0.04,WUHU216DAVISVP2,2013-10-06 23:34:00,
2013-10-06 19:39:00,75.8,73.0,29.95,ESE,113,5.0,11.0,91,0.00,,,0.04,WUHU216DAVISVP2,2013-10-06 23:39:00,
2013-10-06 19:44:00,75.9,73.1,29.95,SE,136,7.0,10.0,91,0.00,,,0.04,WUHU216DAVISVP2,2013-10-06 23:44:00,
2013-10-06 19:49:00,75.9,73.4,29.95,SE,131,8.0,10.0,92,0.00,,,0.04,WUHU216DAVISVP2,2013-10-06 23:49:00,
2013-10-06 19:54:00,75.8,73.0,29.95,SE,135,8.0,9.0,91,0.00,,,0.04,WUHU216DAVISVP2,2013-10-06 23:54:00,
2013-10-06 19:59:00,75.7,73.2,29.96,SE,142,6.0,9.0,92,0.00,,,0.04,WUHU216DAVISVP2,2013-10-06 23:59:00,
2013-10-06 20:00:00,75.7,72.9,29.96,SE,135,7.0,10.0,91,0.00,,,0.04,WUHU216DAVISVP2,2013-10-07 00:00:00,
2013-10-06 20:04:00,75.7,73.2,29.96,SE,134,4.0,9.0,92,0.00,,,0.04,WUHU216DAVISVP2,2013-10-07 00:04:00,
2013-10-06 20:09:00,75.6,72.8,29.96,SSE,151,6.0,9.0,91,0.00,,,0.04,WUHU216DAVISVP2,2013-10-07 00:09:00,
2013-10-06 20:14:00,75.6,72.8,29.96,SE,126,3.0,9.0,91,0.00,,,0.04,WUHU216DAVISVP2,2013-10-07 00:14:00,
2013-10-06 20:19:00,75.6,72.8,29.97,SE,146,4.0,7.0,91,0.00,,,0.04,WUHU216DAVISVP2,2013-10-07 00:19:00,
2013-10-06 20:24:00,75.6,72.8,29.97,SE,138,4.0,7.0,91,0.00,,,0.04,WUHU216DAVISVP2,2013-10-07 00:24:00,
2013-10-06 20:29:00,75.7,72.9,29.97,SSE,158,6.0,7.0,91,0.00,,,0.04,WUHU216DAVISVP2,2013-10-07 00:29:00,
2013-10-06 20:30:00,75.7,72.9,29.97,SE,135,5.0,7.0,91,0.00,,,0.04,WUHU216DAVISVP2,2013-10-07 00:30:00,
2013-10-06 20:34:00,75.8,72.6,29.97,SE,141,4.0,8.0,90,0.00,,,0.04,WUHU216DAVISVP2,2013-10-07 00:34:00,
2013-10-06 20:39:00,75.8,72.6,29.97,SE,146,7.0,8.0,90,0.00,,,0.04,WUHU216DAVISVP2,2013-10-07 00:39:00,
2013-10-06 20:44:00,76.0,72.8,29.97,SE,138,7.0,8.0,90,0.00,,,0.04,WUHU216DAVISVP2,2013-10-07 00:44:00,
2013-10-06 20:49:00,76.0,72.5,29.96,SE,136,8.0,10.0,89,0.00,,,0.04,WUHU216DAVISVP2,2013-10-07 00:49:00,
2013-10-06 20:54:00,76.2,72.7,29.96,SE,143,8.0,10.0,89,0.00,,,0.04,WUHU216DAVISVP2,2013-10-07 00:54:00,
2013-10-06 20:59:00,76.3,72.8,29.96,ESE,117,8.0,10.0,89,0.00,,,0.04,WUHU216DAVISVP2,2013-10-07 00:59:00,
2013-10-06 21:00:00,76.3,72.8,29.96,SE,135,7.0,10.0,89,0.00,,,0.04,WUHU216DAVISVP2,2013-10-07 01:00:00,
2013-10-06 21:04:00,76.5,73.0,29.96,SE,134,8.0,10.0,89,0.00,,,0.04,WUHU216DAVISVP2,2013-10-07 01:04:00,
2013-10-06 21:09:00,76.4,72.6,29.96,SE,135,9.0,12.0,88,0.00,,,0.04,WUHU216DAVISVP2,2013-10-07 01:09:00,
2013-10-06 21:14:00,76.6,72.8,29.96,SE,129,8.0,12.0,88,0.00,,,0.04,WUHU216DAVISVP2,2013-10-07 01:14:00,
2013-10-06 21:19:00,76.7,72.9,29.96,ESE,117,8.0,12.0,88,0.00,,,0.04,WUHU216DAVISVP2,2013-10-07 01:19:00,
2013-10-06 21:24:00,76.8,73.0,29.96,ESE,117,8.0,12.0,88,0.00,,,0.04,WUHU216DAVISVP2,2013-10-07 01:24:00,
2013-10-06 21:29:00,76.8,72.7,29.96,SE,143,9.0,11.0,87,0.00,,,0.04,WUHU216DAVISVP2,2013-10-07 01:29:00,
2013-10-06 21:30:00,76.8,72.6,29.96,SE,135,9.0,12.0,87,0.00,,,0.04,WUHU216DAVISVP2,2013-10-07 01:30:00,
2013-10-06 21:34:00,76.8,72.7,29.96,SE,142,10.0,12.0,87,0.00,,,0.04,WUHU216DAVISVP2,2013-10-07 01:34:00,
2013-10-06 21:39:00,77.0,72.9,29.96,ESE,115,11.0,12.0,87,0.00,,,0.04,WUHU216DAVISVP2,2013-10-07 01:39:00,
2013-10-06 21:44:00,77.0,72.9,29.96,SE,128,12.0,14.0,87,0.00,,,0.04,WUHU216DAVISVP2,2013-10-07 01:44:00,
2013-10-06 21:49:00,77.1,73.0,29.96,ESE,119,10.0,14.0,87,0.00,,,0.04,WUHU216DAVISVP2,2013-10-07 01:49:00,
2013-10-06 21:54:00,77.1,73.3,29.95,ESE,120,14.0,14.0,88,0.00,,,0.04,WUHU216DAVISVP2,2013-10-07 01:54:00,
2013-10-06 21:59:00,77.2,73.7,29.95,SE,136,11.0,14.0,89,0.00,,,0.04,WUHU216DAVISVP2,2013-10-07 01:59:00,
2013-10-06 22:00:00,77.2,73.4,29.95,SE,135,11.0,15.0,88,0.00,,,0.04,WUHU216DAVISVP2,2013-10-07 02:00:00,
2013-10-06 22:04:00,77.1,73.3,29.95,ESE,114,11.0,15.0,88,0.00,,,0.04,WUHU216DAVISVP2,2013-10-07 02:04:00,
2013-10-06 22:09:00,77.1,73.3,29.95,ESE,122,12.0,17.0,88,0.00,,,0.04,WUHU216DAVISVP2,2013-10-07 02:09:00,
2013-10-06 22:14:00,77.1,73.3,29.95,SE,135,8.0,17.0,88,0.00,,,0.04,WUHU216DAVISVP2,2013-10-07 02:14:00,
2013-10-06 22:19:00,77.2,73.4,29.95,ESE,117,8.0,17.0,88,0.00,,,0.04,WUHU216DAVISVP2,2013-10-07 02:19:00,
2013-10-06 22:24:00,77.3,73.8,29.95,SE,131,12.0,17.0,89,0.00,,,0.04,WUHU216DAVISVP2,2013-10-07 02:24:00,
2013-10-06 22:29:00,77.4,73.9,29.95,SE,130,12.0,15.0,89,0.00,,,0.04,WUHU216DAVISVP2,2013-10-07 02:29:00,
2013-10-06 22:30:00,77.5,74.0,29.95,SE,135,11.0,17.0,89,0.00,,,0.04,WUHU216DAVISVP2,2013-10-07 02:30:00,
2013-10-06 22:34:00,77.6,74.1,29.95,SE,142,11.0,15.0,89,0.00,,,0.04,WUHU216DAVISVP2,2013-10-07 02:34:00,
2013-10-06 22:39:00,77.7,74.2,29.95,SE,141,11.0,15.0,89,0.00,,,0.04,WUHU216DAVISVP2,2013-10-07 02:39:00,
2013-10-06 22:44:00,77.8,74.3,29.95,SE,143,12.0,15.0,89,0.00,,,0.04,WUHU216DAVISVP2,2013-10-07 02:44:00,
2013-10-06 22:49:00,77.9,74.4,29.95,SE,141,12.0,15.0,89,0.00,,,0.04,WUHU216DAVISVP2,2013-10-07 02:49:00,
2013-10-06 22:54:00,77.9,74.4,29.94,SSE,150,14.0,16.0,89,0.00,,,0.04,WUHU216DAVISVP2,2013-10-07 02:54:00,
2013-10-06 22:59:00,77.9,74.4,29.94,SE,141,14.0,17.0,89,0.00,,,0.04,WUHU216DAVISVP2,2013-10-07 02:59:00,
2013-10-06 23:00:00,77.9,74.4,29.94,SE,135,13.0,17.0,89,0.00,,,0.04,WUHU216DAVISVP2,2013-10-07 03:00:00,
2013-10-06 23:04:00,78.0,74.5,29.94,SE,137,12.0,17.0,89,0.00,,,0.04,WUHU216DAVISVP2,2013-10-07 03:04:00,
2013-10-06 23:09:00,78.0,74.5,29.93,SSE,148,11.0,17.0,89,0.00,,,0.04,WUHU216DAVISVP2,2013-10-07 03:09:00,
2013-10-06 23:14:00,77.9,74.4,29.93,SSE,152,14.0,17.0,89,0.00,,,0.04,WUHU216DAVISVP2,2013-10-07 03:14:00,
2013-10-06 23:19:00,77.9,74.4,29.93,SE,141,15.0,17.0,89,0.00,,,0.04,WUHU216DAVISVP2,2013-10-07 03:19:00,
2013-10-06 23:24:00,78.0,74.8,29.93,SSE,161,14.0,18.0,90,0.00,,,0.04,WUHU216DAVISVP2,2013-10-07 03:24:00,
2013-10-06 23:29:00,77.9,74.7,29.93,SSE,165,18.0,21.0,90,0.00,,,0.04,WUHU216DAVISVP2,2013-10-07 03:29:00,
2013-10-06 23:30:00,77.9,74.7,29.93,SE,135,14.0,21.0,90,0.00,,,0.04,WUHU216DAVISVP2,2013-10-07 03:30:00,
2013-10-06 23:34:00,77.8,74.6,29.93,ESE,105,15.0,21.0,90,0.00,,,0.04,WUHU216DAVISVP2,2013-10-07 03:34:00,
2013-10-06 23:39:00,77.7,74.5,29.93,SSE,154,13.0,21.0,90,0.00,,,0.04,WUHU216DAVISVP2,2013-10-07 03:39:00,
2013-10-06 23:44:00,77.7,74.5,29.93,SE,140,13.0,21.0,90,0.00,,,0.04,WUHU216DAVISVP2,2013-10-07 03:44:00,
2013-10-06 23:49:00,77.7,74.5,29.93,SSE,148,13.0,17.0,90,0.00,,,0.04,WUHU216DAVISVP2,2013-10-07 03:49:00,
2013-10-06 23:54:00,77.7,74.5,29.93,SSE,154,13.0,17.0,90,0.00,,,0.04,WUHU216DAVISVP2,2013-10-07 03:54:00,
2013-10-06 23:59:00,77.8,74.6,29.93,SE,141,12.0,17.0,90,0.00,,,0.04,WUHU216DAVISVP2,2013-10-07 03:59:00,